Hayward, WI

8:12 PM CST on November 15, 2019 (GMT -0600)
Sawyer County

Weather History for KHYR - October, 2019

Change the Weather History Date:

Wednesday, October 23, 2019

  Actual Average Record
Temperature  
Mean Temperature 38 °F -  
Max Temperature 44 °F 68 °F 71 °F (1967)
Min Temperature 33 °F 40 °F 17 °F (2002)
Degree Days  
Heating Degree Days 26    
Moisture  
Dew Point 33 °F    
Average Humidity 83    
Maximum Humidity 100    
Minimum Humidity 58    
Precipitation  
Precipitation 0.01 in - - ()
Sea Level Pressure  
Sea Level Pressure 29.81 in    
Wind  
Wind Speed 5 mph ()    
Max Wind Speed 9 mph    
Max Gust Speed 20 mph    
Visibility 9.9 miles    
Events Rain    
Averages and records for this station are not official NWS values.
T = Trace of Precipitation, MM = Missing Value Source: Averaged Metar Reports

Daily Weather History Graph

Daily Weather History Graph

Search for Another Location

Airport or City:

Astronomy

Oct. 23, 2019 Rise Set
Actual Time 7:33 AM CDT 6:06 PM CDT
Civil Twilight 7:02 AM CDT 6:36 PM CDT
Nautical Twilight 6:27 AM CDT 7:11 PM CDT
Astronomical Twilight 5:53 AM CDT 7:46 PM CDT
Moon 1:28 AM CDT (10/23) 4:18 PM CDT (10/23)
Length of Visible Light 11h 33m
Length of Day
10h 32m
Waning Crescent, 26% of the Moon is Illuminated
Oct 23
Waning Crescent
Oct 27
New
Nov 4
First Quarter
Nov 12
Full
Nov 19
Last Quarter

Hourly Weather History & Observations

Time (CDT) Temp. Windchill Dew Point Humidity Pressure Visibility Wind Dir Wind Speed Gust Speed Precip Events Conditions
12:53 AM 37.0 °F 32.4 °F 36.0 °F 96% 29.61 in 10.0 mi Variable 5.8 mph 18.4 mph 0.00 in Rain Light Rain
1:53 AM 37.0 °F 32.4 °F 36.0 °F 96% 29.63 in 10.0 mi Variable 5.8 mph - 0.00 in   Overcast
2:05 AM 37.0 °F 32.4 °F 36.0 °F 96% 29.60 in 10.0 mi Variable 5.8 mph - 0.00 in Rain Light Rain
2:24 AM 37.0 °F - 37.0 °F 100% 29.61 in 10.0 mi North - - 0.00 in Rain Light Rain
2:45 AM 37.0 °F 32.4 °F 36.0 °F 96% 29.62 in 10.0 mi West 5.8 mph - 0.01 in Rain Light Rain
2:53 AM 37.0 °F - 36.0 °F 96% 29.65 in 10.0 mi North - - 0.01 in Rain Light Rain
3:08 AM 37.0 °F 32.4 °F 37.0 °F 100% 29.62 in 7.0 mi Variable 5.8 mph - 0.00 in Rain Light Rain
3:19 AM 37.0 °F 33.3 °F 37.0 °F 100% 29.62 in 10.0 mi Variable 4.6 mph - 0.00 in Rain Light Rain
3:53 AM 37.0 °F 32.4 °F 36.0 °F 96% 29.67 in 10.0 mi Variable 5.8 mph - 0.00 in   Overcast
4:10 AM 37.0 °F 33.3 °F 36.0 °F 96% 29.64 in 10.0 mi Variable 4.6 mph - 0.00 in Rain Light Rain
4:49 AM 35.6 °F 29.2 °F 35.6 °F 100% 29.66 in 10.0 mi WSW 8.1 mph - 0.00 in Rain Light Rain
4:53 AM 36.0 °F 30.3 °F 36.0 °F 100% 29.70 in 10.0 mi WSW 6.9 mph - 0.00 in Rain Light Rain
5:19 AM 37.0 °F 31.6 °F 36.0 °F 96% 29.67 in 10.0 mi West 6.9 mph - 0.00 in Rain Light Rain
5:27 AM 37.0 °F 32.4 °F 36.0 °F 96% 29.68 in 10.0 mi WSW 5.8 mph - 0.00 in   Overcast
5:53 AM 37.0 °F 33.3 °F 35.1 °F 93% 29.72 in 10.0 mi Variable 4.6 mph 19.6 mph 0.00 in   Overcast
6:53 AM 36.0 °F 32.1 °F 35.1 °F 97% 29.75 in 10.0 mi Variable 4.6 mph - N/A   Overcast
7:02 AM 36.0 °F 29.6 °F 35.1 °F 97% 29.71 in 10.0 mi West 8.1 mph 16.1 mph N/A   Overcast
7:13 AM 36.0 °F 32.1 °F 35.1 °F 97% 29.72 in 10.0 mi Variable 4.6 mph - N/A   Overcast
7:53 AM 36.0 °F 31.1 °F 34.0 °F 93% 29.76 in 10.0 mi Variable 5.8 mph - N/A   Mostly Cloudy
8:53 AM 37.0 °F 32.4 °F 30.9 °F 79% 29.80 in 10.0 mi Variable 5.8 mph - N/A   Overcast
9:53 AM 37.9 °F 33.5 °F 32.0 °F 79% 29.82 in 10.0 mi Variable 5.8 mph - 0.00 in   Overcast
10:53 AM 37.9 °F 35.5 °F 32.0 °F 79% 29.83 in 10.0 mi Variable 3.5 mph - 0.00 in Rain Light Rain
11:53 AM 39.9 °F 35.1 °F 30.9 °F 70% 29.85 in 10.0 mi Variable 6.9 mph 18.4 mph 0.00 in   Overcast
12:40 PM 41.0 °F 39.0 °F 32.0 °F 70% 29.83 in 10.0 mi Variable 3.5 mph - 0.00 in   Overcast
12:53 PM 41.0 °F - 32.0 °F 70% 29.87 in 10.0 mi North - - 0.00 in   Overcast
1:22 PM 39.9 °F 37.8 °F 32.0 °F 73% 29.84 in 10.0 mi WSW 3.5 mph - 0.00 in Rain Light Rain
1:38 PM 41.0 °F 37.1 °F 32.0 °F 70% 29.84 in 10.0 mi WSW 5.8 mph 16.1 mph 0.00 in Rain Light Rain
1:53 PM 42.1 °F 37.1 °F 32.0 °F 67% 29.88 in 10.0 mi West 8.1 mph - 0.00 in Rain Light Rain
2:21 PM 42.1 °F 37.7 °F 30.9 °F 65% 29.85 in 10.0 mi Variable 6.9 mph - 0.00 in Rain Light Rain
2:36 PM 42.1 °F 40.2 °F 32.0 °F 67% 29.85 in 10.0 mi Variable 3.5 mph 18.4 mph 0.00 in   Overcast
2:45 PM 42.1 °F 37.7 °F 30.9 °F 65% 29.85 in 10.0 mi West 6.9 mph - 0.00 in   Overcast
2:53 PM 42.1 °F 36.6 °F 30.9 °F 65% 29.89 in 10.0 mi West 9.2 mph - 0.00 in   Overcast
3:53 PM 43.0 °F 38.2 °F 30.9 °F 62% 29.92 in 10.0 mi West 8.1 mph 18.4 mph 0.00 in   Overcast
4:04 PM 43.0 °F 39.5 °F 30.9 °F 62% 29.89 in 10.0 mi Variable 5.8 mph - N/A   Mostly Cloudy
4:27 PM 43.0 °F 41.3 °F 30.0 °F 60% 29.89 in 10.0 mi Variable 3.5 mph - N/A   Mostly Cloudy
4:53 PM 44.1 °F 41.5 °F 30.0 °F 58% 29.94 in 10.0 mi West 4.6 mph - N/A   Mostly Cloudy
5:53 PM 42.1 °F 39.2 °F 30.0 °F 62% 29.96 in 10.0 mi West 4.6 mph - N/A   Clear
6:53 PM 37.9 °F - 30.9 °F 76% 29.99 in 10.0 mi Calm Calm - N/A   Clear
7:53 PM 33.1 °F - 28.0 °F 82% 30.03 in 10.0 mi Calm Calm - N/A   Clear
8:49 PM 33.8 °F - 30.2 °F 87% 30.01 in 10.0 mi Calm Calm - N/A   Mostly Cloudy
8:53 PM 34.0 °F - 30.0 °F 85% 30.05 in 10.0 mi Calm Calm - N/A   Mostly Cloudy
9:11 PM 36.0 °F 33.3 °F 30.0 °F 79% 30.02 in 10.0 mi Variable 3.5 mph - N/A   Scattered Clouds
9:53 PM 37.0 °F 34.5 °F 30.0 °F 76% 30.07 in 10.0 mi West 3.5 mph - N/A   Clear
10:53 PM 35.1 °F - 30.0 °F 82% 30.09 in 10.0 mi Calm Calm - N/A   Scattered Clouds
11:53 PM 33.1 °F - 28.9 °F 85% 30.11 in 10.0 mi Calm Calm - N/A   Partly Cloudy